星链-4111 (STARLINK-4111 )

导读

STARLINK-4111是美国SpaceX公司星链星座的1.5版本卫星,于2022年7月17日发射入轨,目前仍正常在轨运行。它重约386kg,配备太阳能电池阵与相控阵天线,运行在近地轨道,隶属于星链一代星座,主要为全球提供高速低延迟的宽带互联网服务,服役寿命约5-7年,退役后会迅速离轨坠落,是星链星座全球组网过程中的重要组成卫星。

基本信息
目录编号:
53159
目录名称:
STARLINK-4111
国际标识:
2022-083AD
轨道中心:
EARTH
卫星名称:
星链-4111
卫星全名:
星链-4111 (STARLINK-4111 )
卫星状态:
在轨 (已飞行1431 天)
发射日期:
2022-07-17 UTC
国别 :
美国 (US)
星等 :
--
轨道信息
数据来源 国际轨道数据
星历时间: 2026-06-17T09:39:08+0800
9小时前
查看轨道信息
半长轴: 6917.953km
偏心率: 0.00014
轨道倾角: 53.161°
近地点辐角 83.309°
升交点赤经 77.895°
平近点角 276.806°
近地点: 538.847km
远地点: 540.785km
周期: 95.439分钟
每日圈数: 15.088164
详细信息
固有亮度:
5
最大亮度:
2.5
卫星平台:
Starlink v1.5
覆盖范围:
全球
运营商:
太空探索技术公司
运营商所在国:
美国
制造商(研发单位):
太空探索技术公司
制造商所在国:
美国
使用方式:
暂无
卫星简介
星链(Starlink)计划是由太空探索技术公司(SpaceX)提出的一个巨型低轨卫星互联网星座项目,计划在2019年至2024年间在太空搭建由约1.2万颗卫星组成的“星链”网络,其中1584颗将部署在地球上空550千米处的近地轨道,并从2020年开始工作。该卫星仍在工作。
2D轨道图
3D轨道图
轨道高度分析图
轨道倾角分析图
轨道综合分析图
查看轨道综合分析图